GBFRV EGLL-LIMJ

Flight info

Callsign GBFRV
Flight time N/A
Altitude 37000
Route MODMI M185 MID UL612 OGULO DCT OKASI DCT OKEKO DCT MOU DCT MADIV DCT MOKIP DCT TUFTA DCT GEVEA/N0496F330 DCT MOBLO DCT LURAG DCT OBUXA DCT TOP/N0432F190 M730 TESTO
Aircraft B78X/H-SDE1E2E3FGHIJ2J3J4J5M1RWXY/LB1D1

Departure

Time N/A
Airport London Heathrow Airport (EGLL)

Arrival

Time 2026-05-07 18:25
Airport Genoa Cristoforo Colombo Airport (LIMJ)
Time Latitude Longitude Altitude Speed Heading
2026-05-07 18:06 43.73929 9.76437 38002 ft 468 kts 309°
2026-05-07 18:07 43.78587 9.70134 37996 ft 468 kts 309°
2026-05-07 18:07 43.83224 9.63840 37824 ft 470 kts 309°
2026-05-07 18:07 43.85567 9.60654 36913 ft 473 kts 309°
2026-05-07 18:08 43.87888 9.57498 36043 ft 474 kts 309°
2026-05-07 18:08 43.90236 9.54303 35094 ft 473 kts 309°
2026-05-07 18:08 43.92592 9.51087 33824 ft 472 kts 309°
2026-05-07 18:08 43.94895 9.47955 32385 ft 454 kts 309°
2026-05-07 18:09 43.97103 9.44946 31020 ft 437 kts 308°
2026-05-07 18:09 43.99222 9.42040 29659 ft 422 kts 308°
2026-05-07 18:09 44.01277 9.39213 28160 ft 410 kts 309°
2026-05-07 18:09 44.03277 9.36468 26753 ft 400 kts 309°
2026-05-07 18:10 44.05235 9.33781 25431 ft 392 kts 310°
2026-05-07 18:10 44.07162 9.31134 24133 ft 386 kts 311°
2026-05-07 18:10 44.09059 9.28524 22776 ft 381 kts 311°
2026-05-07 18:10 44.10928 9.25951 21350 ft 376 kts 312°
2026-05-07 18:11 44.12753 9.23435 20006 ft 371 kts 313°
2026-05-07 18:11 44.13988 9.21733 19123 ft 367 kts 313°
2026-05-07 18:11 44.16387 9.18422 17311 ft 361 kts 314°
2026-05-07 18:11 44.18146 9.15992 15953 ft 361 kts 314°
2026-05-07 18:12 44.19938 9.13514 14662 ft 365 kts 314°
2026-05-07 18:12 44.21748 9.11007 13352 ft 368 kts 314°
2026-05-07 18:12 44.23551 9.08509 11966 ft 359 kts 314°
2026-05-07 18:12 44.25307 9.06075 10651 ft 353 kts 315°
2026-05-07 18:13 44.27026 9.03708 9332 ft 340 kts 317°
2026-05-07 18:13 44.29039 9.02035 7971 ft 341 kts 342°
2026-05-07 18:13 44.31362 9.01647 6672 ft 335 kts
2026-05-07 18:13 44.33674 9.02061 5342 ft 336 kts 11°
2026-05-07 18:14 44.35952 9.02693 4002 ft 332 kts 12°
2026-05-07 18:14 44.38206 9.02793 3056 ft 323 kts 346°
2026-05-07 18:14 44.40060 9.01245 2908 ft 307 kts 310°
2026-05-07 18:14 44.40878 8.98488 2962 ft 309 kts 275°
2026-05-07 18:15 44.40643 8.95638 2438 ft 284 kts 253°
2026-05-07 18:15 44.40140 8.93012 1396 ft 276 kts 259°
2026-05-07 18:15 44.40110 8.90533 833 ft 236 kts 277°
2026-05-07 18:15 44.40402 8.88448 475 ft 202 kts 282°
2026-05-07 18:16 44.40719 8.86674 203 ft 173 kts 282°
2026-05-07 18:16 44.40797 8.86264 62 ft 166 kts 283°
2026-05-07 18:25 44.41001 8.85326 29 ft 55 kts 294°
2026-05-07 18:25 44.41047 8.85229 26 ft 0 kts 320°